DW5914 Weather Reports


Display with metric or nautical units.
time (UTC)temp
F
wind
direction
speed
MPH
gust
MPH
rain 1hr
in
rain 24hr
in
rain mn
in
humidity
%
barometer
mb
20260510220043 62 165 5.0 11.0 0.00 0.00 0.00 69 1020.4
20260510214543 62 147 5.0 13.0 0.00 0.00 0.00 69 1020.3
20260510213043 63 179 5.0 8.0 0.00 0.00 0.00 69 1020.3
20260510211539 62 175 5.0 11.0 0.00 0.00 0.00 70 1020.4
20260510210041 62 229 1.0 8.0 0.00 0.00 0.00 70 1020.3
20260510204541 61 208 4.0 10.0 0.00 0.00 0.00 71 1020.0
20260510203034 62 198 3.0 11.0 0.00 0.00 0.00 69 1020.0
20260510201533 62 232 5.0 12.0 0.00 0.00 0.00 69 1020.0
20260510200032 62 207 6.0 12.0 0.00 0.00 0.00 68 1020.1
20260510194545 60 165 2.0 8.0 0.00 0.00 0.00 73 1020.0
20260510193027 59 176 2.0 8.0 0.00 0.00 0.00 74 1020.0
20260510191526 60 202 2.0 9.0 0.00 0.00 0.00 70 1020.1
20260510190039 60 174 2.0 8.0 0.00 0.00 0.00 71 1019.9
20260510184522 60 350 3.0 9.0 0.00 0.00 0.00 72 1019.9
20260510183020 59 189 1.0 12.0 0.00 0.00 0.00 75 1019.8
20260510181517 58 134 4.0 10.0 0.00 0.00 0.00 75 1019.7
20260510180019 58 242 1.0 5.0 0.00 0.00 0.00 79 1019.6
20260510174513 56 154 2.0 8.0 0.00 0.00 0.00 79 1019.7
20260510173009 56 224 1.0 7.0 0.00 0.00 0.00 81 1019.6
20260510171508 55 163 2.0 7.0 0.00 0.00 0.00 81 1019.3
20260510170006 55 185 1.0 7.0 0.00 0.00 0.00 84 1019.4
20260510164503 54 202 1.0 7.0 0.00 0.00 0.00 86 1019.4
20260510163002 53 209 4.0 9.0 0.00 0.00 0.00 86 1019.4
20260510161600 54 180 2.0 7.0 0.00 0.00 0.00 85 1019.1
20260510160101 53 125 2.0 8.0 0.00 0.00 0.00 86 1019.1
20260510154603 53 196 2.0 7.0 0.00 0.00 0.00 87 1019.2
20260510153100 52 111 1.0 7.0 0.00 0.00 0.00 89 1019.0
20260510151557 51 145 0.0 6.0 0.00 0.00 0.00 90 1018.9
20260510150122 51 242 2.0 6.0 0.00 0.00 0.00 90 1019.2
20260510144618 51 54 1.0 4.0 0.00 0.00 0.00 91 1018.9
20260510143057 50 234 2.0 6.0 0.00 0.00 0.00 92 1019.2
20260510141555 50 208 2.0 8.0 0.00 0.00 0.00 93 1019.2
20260510140054 50 205 2.0 5.0 0.00 0.00 0.00 94 1019.0
20260510134602 49 193 1.0 3.0 0.00 0.00 0.00 94 1018.8
20260510133051 49 217 3.0 7.0 0.00 0.00 0.00 94 1018.7
20260510131550 49 199 1.0 6.0 0.00 0.00 0.00 94 1018.8
20260510130049 49 153 0.0 0.0 0.00 0.00 0.00 94 1018.7
20260510124549 49 153 0.0 0.0 0.00 0.00 0.00 93 1018.6
20260510123046 49 167 0.0 3.0 0.00 0.00 0.00 93 1018.4
20260510121545 49 166 1.0 3.0 0.00 0.00 0.00 93 1018.5
20260510120046 49 170 3.0 7.0 0.00 0.00 0.00 93 1018.6
20260510114604 49 198 3.0 5.0 0.00 0.00 0.00 93 1018.5
20260510113052 50 185 2.0 6.0 0.00 0.00 0.00 93 1018.1
20260510111541 50 238 2.0 7.0 0.00 0.00 0.00 92 1018.3
20260510110042 49 215 1.0 4.0 0.00 0.00 0.00 92 1018.4
20260510104538 49 179 1.0 3.0 0.00 0.00 0.00 91 1018.2
20260510103033 49 178 0.0 2.0 0.00 0.00 0.00 90 1018.2
20260510101531 50 178 0.0 2.0 0.00 0.00 0.00 90 1018.3
20260510100038 50 184 2.0 4.0 0.00 0.00 0.00 89 1018.3
20260510094535 50 155 1.0 3.0 0.00 0.00 0.00 89 1018.3
20260510093027 50 206 1.0 3.0 0.00 0.00 0.00 88 1018.3
20260510091525 51 174 1.0 5.0 0.00 0.00 0.00 87 1018.2
20260510090024 51 156 0.0 4.0 0.00 0.00 0.00 85 1018.1
20260510084526 52 198 0.0 5.0 0.00 0.00 0.00 85 1018.0
20260510083019 52 186 2.0 5.0 0.00 0.00 0.00 83 1018.0
20260510081517 52 173 0.0 3.0 0.00 0.00 0.00 83 1018.0
20260510080017 53 153 1.0 6.0 0.00 0.00 0.00 82 1017.9
20260510074514 53 211 4.0 6.0 0.00 0.00 0.00 81 1017.8
20260510073011 53 163 2.0 7.0 0.00 0.00 0.00 80 1017.8
20260510071510 53 184 4.0 7.0 0.00 0.00 0.00 79 1017.8
20260510070008 53 179 4.0 8.0 0.00 0.00 0.00 80 1017.8
20260510064507 54 180 4.0 9.0 0.00 0.00 0.00 80 1017.8
20260510063007 54 196 4.0 7.0 0.00 0.00 0.00 78 1017.7
20260510061506 55 196 3.0 7.0 0.00 0.00 0.00 76 1017.6
20260510060006 55 177 3.0 5.0 0.00 0.00 0.00 77 1017.7
20260510054506 56 169 3.0 5.0 0.00 0.00 0.00 76 1017.7
20260510053005 56 180 4.0 8.0 0.00 0.00 0.00 75 1017.8
20260510051505 56 175 5.0 8.0 0.00 0.00 0.00 75 1017.8
20260510050005 56 170 5.0 8.0 0.00 0.00 0.00 75 1017.9
20260510044508 56 171 3.0 7.0 0.00 0.00 0.00 76 1017.9
20260510043008 57 161 4.0 7.0 0.00 0.00 0.00 75 1017.9
20260510041503 57 135 4.0 7.0 0.00 0.00 0.00 75 1017.8
20260510040002 57 146 3.0 7.0 0.00 0.00 0.00 76 1017.5
20260510034503 58 169 3.0 6.0 0.00 0.00 0.00 75 1017.6
20260510033002 58 176 2.0 6.0 0.00 0.00 0.00 73 1017.4
20260510031502 58 166 2.0 5.0 0.00 0.00 0.00 72 1017.4
20260510024600 60 176 3.0 5.0 0.00 0.00 0.00 70 1017.5
20260510023059 62 193 2.0 4.0 0.00 0.00 0.00 68 1017.5
20260510021557 64 178 1.0 3.0 0.00 0.00 0.00 62 1017.5
20260510020057 64 215 0.0 0.0 0.00 0.00 0.00 61 1017.7
20260510014606 64 180 0.0 0.0 0.00 0.00 0.00 61 1017.9
20260510013052 64 333 1.0 3.0 0.00 0.00 0.00 62 1018.3
20260510011557 63 273 1.0 3.0 0.00 0.00 0.00 64 1018.6
20260510010100 63 334 0.0 2.0 0.00 0.00 0.00 65 1018.7
20260510004554 62 17 1.0 5.0 0.00 0.00 0.00 66 1018.8
20260510003057 61 13 2.0 8.0 0.00 0.00 0.00 67 1018.9
20260510001547 61 11 1.0 5.0 0.00 0.00 0.00 71 1019.2
20260510000051 60 18 4.0 8.0 0.00 0.00 0.00 70 1019.4
20260509234556 61 36 3.0 6.0 0.00 0.00 0.00 69 1019.5
20260509233041 61 342 2.0 8.0 0.00 0.00 0.00 68 1019.7
20260509231540 62 343 3.0 8.0 0.00 0.00 0.00 65 1020.0
20260509230037 62 329 2.0 7.0 0.00 0.00 0.00 67 1020.4
20260509224535 61 5 2.0 7.0 0.00 0.00 0.00 70 1020.7
20260509223034 60 21 2.0 8.0 0.00 0.00 0.00 73 1020.9
20260509221533 61 24 3.0 6.0 0.00 0.00 0.00 73 1021.1